Location: Castillon
(43.0896°N, 0.2156°E)
Time: 17:15:08
(UTC+00:00)

Cosmos 1726 Rocket - Pass Details

Date: 16 June 2021
Orbit: 602 x 630 km, 82.5° (Epoch: 04 August)

Event Time Altitude Azimuth Distance (km) Brightness Sun altitude
Rises 23:28:42 0° 346° (NNW) 2,932 8.5 -23.1°
Reaches altitude 10° 23:31:00 10° 341° (NNW) 2,018 7.2 -23.2°
Maximum altitude 23:35:19 49° 267° (W) 815 4.1 -23.3°
Enters shadow 23:35:39 48° 251° (WSW) 826 4.0 -23.3°
